Volver al catálogo

FENGYUN 1C DEB

LostSSO
NORAD 40690·DEBRIS·🇨🇳 China

Lanzado May 10, 1999 desde Taiyuan Satellite Launch Center

Loading…

Próximos Pases (próximas 24 horas)

TLE

ObsoletoSource: Space-Track

Época: Jun 24, 2026, 08:00 UTC

1 40690U 99025EWW 26175.33357660  .00000476  00000-0  36891-3 0  9995
2 40690  99.3998 219.4001 0092102 343.3120  16.5016 13.95910210640768

Sigue FENGYUN 1C DEB en tiempo real con AllMySat

Download on the App Store